Terug naar catalogus

SL-6 R/B(2)

ActiefHEO
NORAD 21121·ROCKET BODY·🇷🇺 Russia

Gelanceerd Feb 15, 1991 vanaf Plesetsk Cosmodrome

Loading…

Volgende Passages (komende 24 uur)

TLE

VersSource: Space-Track

Epoch: Sep 13, 2026, 21:02 UTC

1 21121U 91012D   26256.87668848  .00000193  00000-0  00000-0 0  9999
2 21121  64.6414 157.6268 6502309 252.2686  30.9211  2.05802491 98953

Volg SL-6 R/B(2) in realtime met AllMySat

Download on the App Store